When you browse on this site, cookies collect data to enhance your experience and personalize the content and advertising you see.
Visit our Privacy Policy to learn more. By continuing to use the site, you agree to this use of cookies and data.
  • In Österreich
  • Länderverzeichnis
  • Für 7 Tage
  • Wassertemperatur
  • Wetterkarte
  • News
  • Widgets
  • user-avatar
    Anmelden

    Stündliche Wetter Molango

    Heute, 29 Mai, Freitag

    Zeit Temperatur Niederschläge Wind Luftdruck Luftfeuchtigkeit
    00:00 +16°C° 0.4 mm 1 m/S 611 mmHg 83%
    01:00 +16°C° 0.4 mm 1 m/S 611 mmHg 85%
    02:00 +15°C° 0.4 mm 1 m/S 610 mmHg 86%
    03:00 +15°C° 1.2 mm 1 m/S 610 mmHg 87%
    04:00 +13°C° 1.2 mm 0 m/S 610 mmHg 87%
    05:00 +14°C° 0 mm 1 m/S 611 mmHg 85%
    06:00 +15°C° 0.9 mm 1 m/S 611 mmHg 85%
    07:00 +15°C° 0.9 mm 1 m/S 612 mmHg 86%
    08:00 +16°C° 0.9 mm 2 m/S 612 mmHg 87%
    09:00 +17°C° 0.5 mm 2 m/S 613 mmHg 78%
    10:00 +19°C° 0.5 mm 2 m/S 613 mmHg 70%
    11:00 +20°C° 0.5 mm 2 m/S 613 mmHg 61%
    12:00 +20°C° 0.3 mm 2 m/S 613 mmHg 61%
    13:00 +20°C° 0.3 mm 3 m/S 613 mmHg 60%
    14:00 +20°C° 0.3 mm 3 m/S 612 mmHg 60%
    15:00 +19°C° 0.4 mm 3 m/S 612 mmHg 67%
    16:00 +18°C° 0.4 mm 2 m/S 612 mmHg 74%
    17:00 +17°C° 0.4 mm 2 m/S 611 mmHg 81%
    18:00 +16°C° 0.3 mm 1 m/S 611 mmHg 87%
    19:00 +15°C° 0.3 mm 1 m/S 611 mmHg 92%
    20:00 +13°C° 0.3 mm 0 m/S 612 mmHg 97%
    21:00 +12°C° 0 mm 0 m/S 611 mmHg 96%
    22:00 +12°C° 0 mm 0 m/S 611 mmHg 95%
    23:00 +13°C° 0 mm 1 m/S 611 mmHg 94%

    Morgen, 30 Mai, Samstag

    Zeit Temperatur Niederschläge Wind Luftdruck Luftfeuchtigkeit
    00:00 +13°C° 0 mm 1 m/S 611 mmHg 94%
    01:00 +12°C° 0 mm 1 m/S 610 mmHg 94%
    02:00 +12°C° 0 mm 1 m/S 610 mmHg 94%
    03:00 +12°C° 0 mm 1 m/S 610 mmHg 93%
    04:00 +12°C° 0 mm 1 m/S 610 mmHg 93%
    05:00 +12°C° 0 mm 1 m/S 610 mmHg 93%
    06:00 +13°C° 0.1 mm 1 m/S 611 mmHg 88%
    07:00 +14°C° 0.1 mm 1 m/S 611 mmHg 84%
    08:00 +15°C° 0.1 mm 0 m/S 612 mmHg 79%
    09:00 +18°C° 0.2 mm 1 m/S 612 mmHg 74%
    10:00 +19°C° 0.2 mm 1 m/S 612 mmHg 69%
    11:00 +19°C° 0.2 mm 2 m/S 612 mmHg 64%
    12:00 +19°C° 0.6 mm 2 m/S 612 mmHg 69%
    13:00 +18°C° 0.6 mm 2 m/S 611 mmHg 73%
    14:00 +18°C° 0.6 mm 2 m/S 610 mmHg 78%
    15:00 +17°C° 0.7 mm 2 m/S 610 mmHg 82%
    16:00 +16°C° 0.7 mm 2 m/S 610 mmHg 85%
    17:00 +15°C° 0.7 mm 2 m/S 609 mmHg 89%
    18:00 +15°C° 0.5 mm 1 m/S 610 mmHg 92%
    19:00 +14°C° 0.5 mm 1 m/S 610 mmHg 94%
    20:00 +13°C° 0.5 mm 0 m/S 610 mmHg 96%
    21:00 +13°C° 0.4 mm 0 m/S 610 mmHg 96%
    22:00 +12°C° 0.4 mm 0 m/S 611 mmHg 96%
    23:00 +12°C° 0.4 mm 0 m/S 611 mmHg 96%

    übermorgen, 31 Mai, Sonntag

    Zeit Temperatur Niederschläge Wind Luftdruck Luftfeuchtigkeit
    00:00 +12°C° 0 mm 0 m/S 610 mmHg 96%
    01:00 +12°C° 0 mm 0 m/S 610 mmHg 96%
    02:00 +12°C° 0 mm 0 m/S 609 mmHg 96%
    03:00 +12°C° 0 mm 0 m/S 609 mmHg 95%
    04:00 +12°C° 0 mm 0 m/S 609 mmHg 95%
    05:00 +12°C° 0 mm 0 m/S 610 mmHg 95%
    06:00 +13°C° 0 mm 0 m/S 610 mmHg 89%
    07:00 +15°C° 0 mm 1 m/S 611 mmHg 84%
    08:00 +18°C° 0 mm 1 m/S 612 mmHg 79%
    09:00 +18°C° 0.2 mm 1 m/S 612 mmHg 77%
    10:00 +18°C° 0.2 mm 2 m/S 612 mmHg 75%
    11:00 +19°C° 0.2 mm 2 m/S 612 mmHg 72%
    12:00 +19°C° 0.2 mm 2 m/S 611 mmHg 72%
    13:00 +19°C° 0.2 mm 2 m/S 611 mmHg 71%
    14:00 +20°C° 0.2 mm 3 m/S 611 mmHg 71%
    15:00 +19°C° 0.5 mm 2 m/S 610 mmHg 77%
    16:00 +18°C° 0.5 mm 2 m/S 610 mmHg 83%
    17:00 +17°C° 0.5 mm 2 m/S 610 mmHg 88%
    18:00 +16°C° 0.4 mm 1 m/S 610 mmHg 91%
    19:00 +15°C° 0.4 mm 1 m/S 610 mmHg 94%
    20:00 +14°C° 0.4 mm 1 m/S 610 mmHg 97%
    21:00 +14°C° 0.3 mm 1 m/S 611 mmHg 97%
    22:00 +14°C° 0.3 mm 1 m/S 611 mmHg 97%
    23:00 +14°C° 0.3 mm 1 m/S 611 mmHg 96%

    1 Juni, Montag

    Zeit Temperatur Niederschläge Wind Luftdruck Luftfeuchtigkeit
    00:00 +13°C° 0.1 mm 0 m/S 611 mmHg 96%
    01:00 +13°C° 0.1 mm 0 m/S 610 mmHg 96%
    02:00 +13°C° 0.1 mm 0 m/S 610 mmHg 96%
    03:00 +13°C° 0 mm 0 m/S 610 mmHg 96%
    04:00 +13°C° 0 mm 0 m/S 610 mmHg 97%
    05:00 +13°C° 0 mm 0 m/S 610 mmHg 97%
    06:00 +14°C° 0.1 mm 0 m/S 611 mmHg 92%
    07:00 +16°C° 0.1 mm 1 m/S 611 mmHg 88%
    08:00 +18°C° 0.1 mm 1 m/S 612 mmHg 84%
    09:00 +19°C° 0.6 mm 1 m/S 612 mmHg 81%
    10:00 +19°C° 0.6 mm 2 m/S 612 mmHg 79%
    11:00 +19°C° 0.6 mm 2 m/S 613 mmHg 76%
    12:00 +19°C° 1.7 mm 2 m/S 612 mmHg 79%
    13:00 +19°C° 1.7 mm 2 m/S 611 mmHg 82%
    14:00 +19°C° 1.7 mm 2 m/S 611 mmHg 84%
    15:00 +18°C° 1.8 mm 2 m/S 610 mmHg 87%
    16:00 +17°C° 1.8 mm 2 m/S 610 mmHg 89%
    17:00 +17°C° 1.8 mm 2 m/S 610 mmHg 91%
    18:00 +16°C° 1 mm 2 m/S 610 mmHg 93%
    19:00 +16°C° 1 mm 2 m/S 611 mmHg 95%
    20:00 +15°C° 1 mm 1 m/S 611 mmHg 97%
    21:00 +15°C° 0.5 mm 1 m/S 611 mmHg 97%
    22:00 +15°C° 0.5 mm 1 m/S 611 mmHg 97%
    23:00 +14°C° 0.5 mm 1 m/S 611 mmHg 97%

    2 Juni, Dienstag

    Zeit Temperatur Niederschläge Wind Luftdruck Luftfeuchtigkeit
    00:00 +14°C° 0 mm 1 m/S 611 mmHg 97%
    01:00 +14°C° 0 mm 1 m/S 610 mmHg 96%
    02:00 +13°C° 0 mm 0 m/S 610 mmHg 96%
    03:00 +13°C° 0 mm 0 m/S 610 mmHg 96%
    04:00 +13°C° 0 mm 0 m/S 610 mmHg 96%
    05:00 +12°C° 0 mm 0 m/S 610 mmHg 96%
    06:00 +14°C° 0 mm 0 m/S 611 mmHg 89%
    07:00 +16°C° 0 mm 0 m/S 612 mmHg 82%
    08:00 +20°C° 0 mm 1 m/S 613 mmHg 75%
    09:00 +20°C° 0.1 mm 1 m/S 613 mmHg 72%
    10:00 +20°C° 0.1 mm 2 m/S 613 mmHg 69%
    11:00 +21°C° 0.1 mm 3 m/S 613 mmHg 66%
    12:00 +20°C° 1.2 mm 3 m/S 612 mmHg 73%
    13:00 +19°C° 1.2 mm 2 m/S 611 mmHg 79%
    14:00 +18°C° 1.2 mm 2 m/S 611 mmHg 86%
    15:00 +18°C° 1.3 mm 2 m/S 610 mmHg 87%
    16:00 +18°C° 1.3 mm 2 m/S 610 mmHg 89%
    17:00 +17°C° 1.3 mm 2 m/S 610 mmHg 91%
    18:00 +18°C° 0.9 mm 1 m/S 611 mmHg 93%
    19:00 +16°C° 0.9 mm 1 m/S 611 mmHg 95%
    20:00 +15°C° 0.9 mm 1 m/S 611 mmHg 97%
    21:00 +15°C° 0.3 mm 1 m/S 611 mmHg 97%
    22:00 +15°C° 0.3 mm 1 m/S 611 mmHg 96%
    23:00 +15°C° 0.3 mm 1 m/S 611 mmHg 96%

    3 Juni, Mittwoch

    Zeit Temperatur Niederschläge Wind Luftdruck Luftfeuchtigkeit
    00:00 +14°C° 0 mm 1 m/S 611 mmHg 96%
    01:00 +14°C° 0 mm 1 m/S 610 mmHg 96%
    02:00 +14°C° 0 mm 1 m/S 610 mmHg 96%
    03:00 +14°C° 0 mm 1 m/S 610 mmHg 96%
    04:00 +12°C° 0 mm 0 m/S 610 mmHg 96%
    05:00 +12°C° 0 mm 0 m/S 610 mmHg 96%
    06:00 +14°C° 0 mm 0 m/S 610 mmHg 90%
    07:00 +16°C° 0 mm 1 m/S 611 mmHg 85%
    08:00 +19°C° 0 mm 1 m/S 612 mmHg 79%
    09:00 +19°C° 0.2 mm 1 m/S 612 mmHg 80%
    10:00 +19°C° 0.2 mm 1 m/S 612 mmHg 82%
    11:00 +19°C° 0.2 mm 1 m/S 611 mmHg 83%
    12:00 +18°C° 0.3 mm 2 m/S 611 mmHg 80%
    13:00 +19°C° 0.3 mm 2 m/S 611 mmHg 77%
    14:00 +20°C° 0.3 mm 2 m/S 610 mmHg 74%
    15:00 +19°C° 0.8 mm 2 m/S 610 mmHg 80%
    16:00 +18°C° 0.8 mm 2 m/S 610 mmHg 85%
    17:00 +17°C° 0.8 mm 2 m/S 610 mmHg 91%
    18:00 +17°C° 1.4 mm 2 m/S 610 mmHg 93%
    19:00 +16°C° 1.4 mm 2 m/S 610 mmHg 95%
    20:00 +16°C° 1.4 mm 1 m/S 611 mmHg 98%
    21:00 +15°C° 1 mm 1 m/S 611 mmHg 98%
    22:00 +15°C° 1 mm 1 m/S 611 mmHg 98%
    23:00 +15°C° 1 mm 1 m/S 611 mmHg 98%
    Mehr zeigen